Simultaneous Nadir Overpasses (SNOs) Predictions

Prediction of SNOs between LANDSAT-8 and NPP Satellite Orbit:

Table of predicted SNOs for the next 14.0 days since TLE Epoch: 4/27/2014
Index Date (LANDSAT-8) Time (LANDSAT-8) Lat,Lon (LANDSAT-8) SZA (LANDSAT-8 ) Date (NPP) Time (NPP) Lat,Lon (NPP) SZA (NPP ) Distance(km) Time Diff (sec)
1 04/28/2014 02:50:52 -70.55, -45.83 123.63 04/28/2014 02:49:39 -70.56, -45.76 123.61 2.84 73
2 04/28/2014 03:40:19 70.45, 121.67 56.26 04/28/2014 03:40:24 70.48, 121.68 56.29 3.23 5
3 04/28/2014 04:29:51 -70.22, -71.03 123.97 04/28/2014 04:31:03 -70.25, -70.63 123.96 15.17 72
4 04/30/2014 19:07:17 -70.54, 70.03 124.48 04/30/2014 19:06:38 -70.57, 70.01 124.44 3.34 39
5 04/30/2014 19:56:44 70.43,-122.47 55.42 04/30/2014 19:57:22 70.43,-122.47 55.41 0.20 38
6 05/03/2014 10:34:11 70.72, 18.55 54.91 05/03/2014 10:32:58 70.76, 18.14 54.97 16.02 73
7 05/03/2014 11:23:43 -70.49,-174.15 125.32 05/03/2014 11:23:37 -70.52,-174.16 125.29 3.47 6
8 05/03/2014 12:13:10 70.39, -6.66 54.57 05/03/2014 12:14:21 70.39, -6.64 54.57 0.93 71
9 05/06/2014 02:50:38 70.58, 134.24 54.01 05/06/2014 02:49:54 70.57, 134.22 54.00 1.84 44
10 05/06/2014 03:40:08 -70.47, -58.30 126.12 05/06/2014 03:40:36 -70.49, -58.33 126.10 2.23 28
11 05/08/2014 18:17:28 -71.07, 83.23 126.24 05/08/2014 18:16:18 -71.13, 81.74 126.15 54.24 70
12 05/08/2014 19:07:03 70.53,-109.95 53.22 05/08/2014 19:06:53 70.54,-109.97 53.23 1.46 10
13 05/08/2014 19:56:33 -70.42, 57.52
